Flag for South Africa Weather past 2 weeks in Cape Town, South Africa

Now
68 °F

Passing clouds.


Feels Like: 68 °F
Forecast: 62 / 72 °F
Wind: 20 mph from South

Location: Cape Town International Airport

Current Time: Mar 27, 2015 at 9:19:57 AM

Latest Report: Mar 27, 2015 at 9:00 AM


Visibility: N/A

Pressure: 30.15 "Hg

Humidity: 69%

Dew point: 57 °F

Location of Cape TownLocation

Historic Weather in Cape Town — Graph

°F

Cape Town temperature yesterday

Maximum temperature yesterday: 75 °F (at 12:00 PM)
Minimum temperature yesterday: 63 °F (at 10:00 PM)
Average temperature yesterday: 68 °F

Past Weeks' High & Low Weather Summary

 TemperatureHumidityPressure
High86 °F (Mar 14, 1:00 PM)94% (Mar 15, 2:00 AM)30.12 "Hg (Mar 15, 2:00 AM)
Low57 °F (Mar 16, 5:00 AM)37% (Mar 17, 3:00 PM)29.71 "Hg (Mar 18, 5:00 AM)
Average68 °F72%29.94 "Hg
* Reported Mar 12 8:00 AM — Mar 27 8:00 AM, Cape Town, Weather by CustomWeather, © 2015

Note: Actual official high and low records may vary slightly from our data, if they occured in-between our weather recording intervals... More about our weather records

Advertising

Cape Town weather history for previous 24 hours

 ConditionsComfort  
Time TempWeatherWind HumidityBarometerVisibility
8:00 AM
Fri, Mar 27
66 °FPassing clouds.15 mph73%30.12 "HgN/A
7:00 AM63 °FPassing clouds.15 mph83%30.12 "HgN/A
6:00 AM63 °FPassing clouds.18 mph83%30.09 "HgN/A
5:00 AM63 °FPassing clouds.20 mph88%30.09 "HgN/A
4:00 AM64 °FPassing clouds.18 mph83%30.09 "HgN/A
3:00 AM64 °FPassing clouds.14 mph83%30.12 "HgN/A
2:00 AM64 °FPassing clouds.13 mph88%30.12 "HgN/A
1:00 AM64 °FPassing clouds.6 mph88%30.12 "HgN/A
12:00 AM61 °FPassing clouds.6 mph94%30.12 "HgN/A
11:00 PM
Thu, Mar 26
63 °FPassing clouds.3 mph88%30.12 "HgN/A
10:00 PM63 °FPassing clouds.3 mph88%30.12 "HgN/A
9:00 PM64 °FPassing clouds.8 mph83%30.12 "HgN/A
8:00 PM66 °FPassing clouds.9 mph78%30.12 "HgN/A
7:00 PM68 °FPassing clouds.14 mph73%30.09 "HgN/A
6:00 PM72 °FPassing clouds.15 mph65%30.09 "HgN/A
5:00 PM73 °FPartly sunny.15 mph57%30.07 "HgN/A
4:00 PM75 °FScattered clouds.8 mph54%30.07 "HgN/A
3:00 PM73 °FScattered clouds.7 mph57%30.07 "HgN/A
2:00 PM72 °FScattered clouds.9 mph65%30.07 "HgN/A
1:00 PM75 °FPartly sunny.8 mph57%30.07 "HgN/A
12:00 PM75 °FPartly sunny.6 mph57%30.07 "HgN/A
11:00 AM72 °FPartly sunny.3 mph69%30.07 "HgN/A
10:00 AM70 °FPartly sunny.2 mph69%30.07 "HgN/A
9:00 AM68 °FPartly sunny.3 mph78%30.07 "HgN/A
Weather by CustomWeather, © 2015

See weather overviewHow to use our weather pages